Погода в Вышгородке

Украина / Тернопольская область     49°46′16″N   25°58′05″E
В апреле 2022 года жителям России запретили посещать сайт meteo.paraplan.net по решению Генеральной прокуратуры. Аудитория сайта уменьшилась в 10 раз. Владельцы сайта не видят смысла в поддержке погодного сервера в таких условиях. Сайт будет закрыт в октябре.
темп.,
°C
ветер,
м/с
пор.,
м/с
влажн.,
%
обл.,
%
осадки,
мм/ч
давл.,
гПа
погр.,
м
3 октября, пн
пн300:00+9зсз81582100 0.1 1008900
03:00+9зсз71387100 0.3 1008854
06:00+9зсз81392100 0.1 1007977
09:00+8зсз91482100 0.3 1007973
12:00+9з81386100 0.3 10071301
15:00+9з91589100 1.1 10071095
18:00+9з91690100 0.8 10061446
21:00+8сз101485100 3.0 1008950
4 октября, вт
вт400:00+7зсз81587100 0.0 1010775
03:00+7зсз81488100 0.0 1011813
06:00+7зсз81588100 0.0 1012753
09:00+7зсз81487100 0.0 1013746
12:00+10з91377100 0.0 1014998
15:00+11з81271100 0.1 10161249
18:00+10зсз61280100 0.4 1018905
21:00+10з61380100 0.6 1019592
5 октября, ср
ср500:00+9з61386100 0.1 1021543
03:00+8з61289100 0.1 1023424
06:00+6з512935 0.0 1024341
09:00+8з51184100 0.0 1025370
12:00+12з5767100 0.0 1025697
15:00+14з575734 0.0 1024983
18:00+13зюз3571100 0.0 102493
21:00+10юз4781100 0.0 1025128
6 октября, чт
чт600:00+10зюз4976100 0.0 1025174
03:00+9зюз378098 0.0 1025129
06:00+8зюз4881100 0.0 1025135
09:00+10зюз4976100 0.0 1025237
12:00+16з585961 0.0 1025556
15:00+18з6957100 0.0 1025916
18:00+15зсз51072100 0.0 1026524
21:00+12зсз411905 0.0 1027210
7 октября, пт
пт700:00+12сз41091100 0.0 1029295
03:00+12ссз488734 0.0 1030350
06:00+9ссз33955 0.0 103159
09:00+10сз23887 0.0 1031123
12:00+15ссз2261100 0.0 1030735
15:00+16с1149100 0.0 10281005
18:00+14всв22605 0.0 102712
21:00+10юв337030 0.0 102727